Volver al catálogo

FENGYUN 1C DEB

ActivoSSO
NORAD 31805·DEBRIS·🇨🇳 China

Lanzado May 10, 1999 desde Taiyuan Satellite Launch Center

Loading…

Próximos Pases (próximas 24 horas)

TLE

EnvejeciendoSource: Space-Track

Época: Sep 10, 2026, 03:40 UTC

1 31805U 99025CGT 26253.15334821  .00003769  00000-0  96810-3 0  9999
2 31805  98.3857 222.6438 0433726 105.7738 259.1695 14.06674394661758

Sigue FENGYUN 1C DEB en tiempo real con AllMySat

Download on the App Store